KN6KS Weather Reports


Display with metric or nautical units.
time (UTC)temp
F
wind
direction
speed
MPH
gust
MPH
rain 1hr
in
rain 24hr
in
rain mn
in
humidity
%
barometer
mb
20260507060806 66 167 2.0 2.0 0.00 0.00 0.00 45 1015.8
20260507060303 67 212 0.0 1.0 0.00 0.00 0.00 41 1016.1
20260507055759 67 203 1.0 1.0 0.00 0.00 0.00 43 1016.3
20260507055254 68 217 0.0 0.0 0.00 0.00 0.00 40 1016.1
20260507054751 69 222 0.0 0.0 0.00 0.00 0.00 38 1016.0
20260507054247 70 234 1.0 1.0 0.00 0.00 0.00 36 1016.0
20260507053745 70 246 1.0 1.0 0.00 0.00 0.00 36 1015.9
20260507053242 71 321 2.0 2.0 0.00 0.00 0.00 35 1016.0
20260507052741 71 234 1.0 1.0 0.00 0.00 0.00 34 1016.0
20260507052237 71 298 2.0 3.0 0.00 0.00 0.00 34 1016.1
20260507051735 71 251 2.0 2.0 0.00 0.00 0.00 34 1015.9
20260507051232 71 294 2.0 2.0 0.00 0.00 0.00 35 1015.8
20260507050728 71 309 4.0 5.0 0.00 0.00 0.00 36 1015.9
20260507050226 72 273 4.0 5.0 0.00 0.00 0.00 35 1015.7
20260507045722 72 253 4.0 5.0 0.00 0.00 0.00 35 1015.9
20260507045218 71 245 3.0 5.0 0.00 0.00 0.00 36 1015.8
20260507044716 72 267 4.0 6.0 0.00 0.00 0.00 36 1015.7
20260507044212 72 260 4.0 5.0 0.00 0.00 0.00 35 1015.6
20260507043708 72 268 4.0 6.0 0.00 0.00 0.00 35 1015.7
20260507043205 72 270 6.0 8.0 0.00 0.00 0.00 35 1015.9
20260507042702 72 295 5.0 7.0 0.00 0.00 0.00 36 1015.6
20260507042156 72 272 9.0 10.0 0.00 0.00 0.00 37 1015.6
20260507041654 72 278 6.0 7.0 0.00 0.00 0.00 36 1015.6
20260507041150 72 277 3.0 5.0 0.00 0.00 0.00 37 1015.4
20260507040648 72 279 7.0 8.0 0.00 0.00 0.00 36 1015.4
20260507040144 72 301 6.0 7.0 0.00 0.00 0.00 38 1015.3
20260507035640 72 273 4.0 6.0 0.00 0.00 0.00 39 1015.2
20260507035136 72 290 8.0 10.0 0.00 0.00 0.00 40 1015.4
20260507034633 72 266 4.0 5.0 0.00 0.00 0.00 41 1015.3
20260507034131 72 271 8.0 9.0 0.00 0.00 0.00 41 1015.2
20260507033629 72 260 8.0 8.0 0.00 0.00 0.00 42 1015.0
20260507033126 72 260 6.0 8.0 0.00 0.00 0.00 43 1015.2
20260507032623 72 270 6.0 7.0 0.00 0.00 0.00 43 1015.2
20260507032119 71 301 6.0 7.0 0.00 0.00 0.00 44 1014.9
20260507031616 71 242 5.0 7.0 0.00 0.00 0.00 46 1015.2
20260507031113 70 242 4.0 5.0 0.00 0.00 0.00 48 1014.9
20260507030609 70 277 6.0 7.0 0.00 0.00 0.00 48 1015.0
20260507030107 72 283 5.0 7.0 0.00 0.00 0.00 46 1015.0
20260507025604 73 322 5.0 6.0 0.00 0.00 0.00 44 1014.9
20260507025101 74 252 4.0 5.0 0.00 0.00 0.00 42 1014.7
20260507024559 74 279 6.0 7.0 0.00 0.00 0.00 43 1014.8
20260507024056 74 222 6.0 7.0 0.00 0.00 0.00 43 1014.7
20260507023551 74 245 6.0 7.0 0.00 0.00 0.00 43 1014.5
20260507023049 74 243 7.0 8.0 0.00 0.00 0.00 43 1014.8
20260507022546 74 261 8.0 9.0 0.00 0.00 0.00 42 1014.6
20260507022041 75 249 7.0 9.0 0.00 0.00 0.00 43 1014.5
20260507021537 75 241 9.0 9.0 0.00 0.00 0.00 42 1014.4
20260507021034 75 282 7.0 8.0 0.00 0.00 0.00 43 1014.4
20260507020531 75 250 8.0 9.0 0.00 0.00 0.00 42 1014.3
20260507020028 75 215 8.0 9.0 0.00 0.00 0.00 43 1014.6
20260507015526 76 251 8.0 9.0 0.00 0.00 0.00 43 1014.4
20260507015024 76 260 9.0 10.0 0.00 0.00 0.00 42 1014.2
20260507014520 77 241 11.0 14.0 0.00 0.00 0.00 41 1014.4
20260507014016 77 241 10.0 10.0 0.00 0.00 0.00 41 1014.4
20260507013513 78 234 9.0 11.0 0.00 0.00 0.00 39 1014.4
20260507013010 78 251 6.0 10.0 0.00 0.00 0.00 39 1014.4
20260507012507 78 244 5.0 7.0 0.00 0.00 0.00 36 1014.3
20260507012003 78 253 12.0 14.0 0.00 0.00 0.00 37 1014.1
20260507011501 78 270 11.0 14.0 0.00 0.00 0.00 37 1014.2
20260507010956 80 214 7.0 8.0 0.00 0.00 0.00 33 1014.1
20260507010451 80 276 6.0 7.0 0.00 0.00 0.00 31 1014.2
20260507005948 80 270 9.0 9.0 0.00 0.00 0.00 31 1014.1
20260507005445 80 257 8.0 10.0 0.00 0.00 0.00 34 1014.2
20260507004941 80 270 8.0 10.0 0.00 0.00 0.00 34 1014.1
20260507004438 80 243 13.0 16.0 0.00 0.00 0.00 32 1014.2
20260507003936 79 289 10.0 11.0 0.00 0.00 0.00 33 1014.0
20260507003431 79 232 6.0 7.0 0.00 0.00 0.00 35 1014.3
20260507002926 83 269 11.0 13.0 0.00 0.00 0.00 31 1014.4
20260507002422 82 280 1.0 1.0 0.00 0.00 0.00 21 1014.2
20260507001920 83 290 2.0 2.0 0.00 0.00 0.00 21 1014.2
20260507001416 82 260 4.0 5.0 0.00 0.00 0.00 21 1014.0
20260507000914 83 18 5.0 5.0 0.00 0.00 0.00 21 1014.3
20260507000409 82 293 0.0 0.0 0.00 0.00 0.00 22 1014.1
20260506235905 82 104 2.0 2.0 0.00 0.00 0.00 21 1014.1
20260506235402 82 271 3.0 5.0 0.00 0.00 0.00 21 1014.2
20260506234852 83 14 10.0 14.0 0.00 0.00 0.00 21 1014.2
20260506234350 82 71 5.0 8.0 0.00 0.00 0.00 22 1014.1
20260506233848 83 36 2.0 3.0 0.00 0.00 0.00 21 1014.1
20260506233344 82 45 4.0 5.0 0.00 0.00 0.00 22 1014.4
20260506232841 83 89 3.0 3.0 0.00 0.00 0.00 22 1014.2
20260506232336 82 83 5.0 7.0 0.00 0.00 0.00 22 1014.4
20260506231832 82 81 5.0 6.0 0.00 0.00 0.00 22 1014.5
20260506231330 82 71 4.0 6.0 0.00 0.00 0.00 23 1014.4
20260506230828 82 84 4.0 5.0 0.00 0.00 0.00 22 1014.3
20260506230325 82 50 3.0 3.0 0.00 0.00 0.00 22 1014.4
20260506225821 81 79 4.0 5.0 0.00 0.00 0.00 23 1014.5
20260506225318 81 56 9.0 11.0 0.00 0.00 0.00 22 1014.3
20260506224815 82 34 5.0 7.0 0.00 0.00 0.00 23 1014.6
20260506224312 82 74 8.0 9.0 0.00 0.00 0.00 22 1014.6
20260506223808 81 189 1.0 1.0 0.00 0.00 0.00 23 1014.5
20260506223303 81 46 3.0 3.0 0.00 0.00 0.00 22 1014.5
20260506222801 82 75 5.0 8.0 0.00 0.00 0.00 23 1014.8
20260506222256 83 45 4.0 6.0 0.00 0.00 0.00 22 1014.8
20260506221754 82 95 4.0 6.0 0.00 0.00 0.00 22 1014.9
20260506221252 82 109 2.0 6.0 0.00 0.00 0.00 22 1014.9
20260506220749 84 55 2.0 2.0 0.00 0.00 0.00 23 1014.9
20260506220244 83 195 2.0 2.0 0.00 0.00 0.00 23 1014.9
20260506215741 80 53 3.0 3.0 0.00 0.00 0.00 24 1015.0
20260506215237 82 351 5.0 6.0 0.00 0.00 0.00 24 1015.2
20260506214733 81 63 3.0 5.0 0.00 0.00 0.00 23 1015.4
20260506214231 81 56 4.0 7.0 0.00 0.00 0.00 24 1015.5
20260506213728 80 230 1.0 1.0 0.00 0.00 0.00 26 1015.5
20260506213225 80 16 10.0 11.0 0.00 0.00 0.00 25 1015.5
20260506212723 79 247 2.0 2.0 0.00 0.00 0.00 26 1015.3
20260506212218 79 38 7.0 8.0 0.00 0.00 0.00 25 1015.5
20260506211714 80 273 0.0 1.0 0.00 0.00 0.00 25 1015.5
20260506211210 80 103 7.0 11.0 0.00 0.00 0.00 25 1015.5
20260506210707 81 85 2.0 3.0 0.00 0.00 0.00 25 1015.5
20260506210204 81 184 4.0 6.0 0.00 0.00 0.00 25 1015.6
20260506205701 81 216 3.0 5.0 0.00 0.00 0.00 24 1015.8
20260506205156 81 160 4.0 5.0 0.00 0.00 0.00 24 1015.5
20260506204654 79 36 3.0 3.0 0.00 0.00 0.00 27 1015.7
20260506204151 79 91 4.0 6.0 0.00 0.00 0.00 26 1015.7
20260506203649 80 92 3.0 5.0 0.00 0.00 0.00 26 1015.7
20260506203146 78 231 3.0 6.0 0.00 0.00 0.00 27 1015.7
20260506202644 79 99 4.0 7.0 0.00 0.00 0.00 27 1015.9
20260506202139 80 52 2.0 3.0 0.00 0.00 0.00 26 1015.7
20260506201636 78 59 5.0 6.0 0.00 0.00 0.00 27 1015.9
20260506201133 79 140 3.0 3.0 0.00 0.00 0.00 26 1016.1
20260506200630 79 98 4.0 5.0 0.00 0.00 0.00 26 1016.0
20260506200126 79 162 3.0 3.0 0.00 0.00 0.00 26 1016.1
20260506195623 78 57 4.0 5.0 0.00 0.00 0.00 27 1015.9
20260506195119 78 37 5.0 8.0 0.00 0.00 0.00 27 1015.9
20260506194617 78 57 6.0 6.0 0.00 0.00 0.00 26 1016.1
20260506194113 77 298 2.0 2.0 0.00 0.00 0.00 30 1015.9
20260506193611 77 94 2.0 2.0 0.00 0.00 0.00 29 1016.1
20260506193108 77 256 0.0 1.0 0.00 0.00 0.00 29 1016.2
20260506192605 76 223 0.0 0.0 0.00 0.00 0.00 29 1015.9
20260506192101 78 354 2.0 2.0 0.00 0.00 0.00 30 1016.2
20260506191557 77 229 4.0 5.0 0.00 0.00 0.00 31 1015.9
20260506191053 75 78 4.0 5.0 0.00 0.00 0.00 30 1016.2
20260506190551 75 237 0.0 1.0 0.00 0.00 0.00 30 1016.3
20260506190048 75 234 4.0 5.0 0.00 0.00 0.00 31 1016.2
20260506185545 75 313 2.0 2.0 0.00 0.00 0.00 30 1016.3
20260506185041 75 357 2.0 5.0 0.00 0.00 0.00 32 1016.6
20260506184539 74 259 1.0 1.0 0.00 0.00 0.00 32 1016.3
20260506184036 74 24 4.0 6.0 0.00 0.00 0.00 33 1016.4
20260506183532 74 343 7.0 9.0 0.00 0.00 0.00 32 1016.7
20260506183029 74 252 3.0 3.0 0.00 0.00 0.00 32 1016.4
20260506182526 74 49 3.0 3.0 0.00 0.00 0.00 33 1016.8
20260506182023 72 229 0.0 1.0 0.00 0.00 0.00 31 1016.8
20260506181521 73 282 1.0 1.0 0.00 0.00 0.00 32 1016.7
20260506181018 72 308 3.0 3.0 0.00 0.00 0.00 34 1016.7
20260506180514 72 309 4.0 5.0 0.00 0.00 0.00 33 1016.4
20260506180011 72 327 2.0 2.0 0.00 0.00 0.00 38 1016.7
20260506175508 71 113 1.0 2.0 0.00 0.00 0.00 38 1016.9
20260506175004 71 106 3.0 5.0 0.00 0.00 0.00 38 1016.8
20260506174502 71 206 3.0 5.0 0.00 0.00 0.00 36 1016.8
20260506173958 71 159 5.0 6.0 0.00 0.00 0.00 36 1016.7
20260506173456 71 173 5.0 10.0 0.00 0.00 0.00 38 1016.8
20260506172952 70 168 3.0 3.0 0.00 0.00 0.00 38 1017.0
20260506172450 70 166 3.0 3.0 0.00 0.00 0.00 37 1016.8
20260506171946 68 240 3.0 5.0 0.00 0.00 0.00 41 1017.0
20260506171444 67 245 1.0 1.0 0.00 0.00 0.00 42 1016.8
20260506170941 67 193 4.0 6.0 0.00 0.00 0.00 43 1017.1
20260506170437 67 223 2.0 2.0 0.00 0.00 0.00 43 1017.1
20260506165930 67 201 4.0 5.0 0.00 0.00 0.00 43 1017.0
20260506165429 66 268 2.0 3.0 0.00 0.00 0.00 43 1017.0
20260506164924 65 120 2.0 2.0 0.00 0.00 0.00 44 1017.0
20260506164421 65 38 3.0 3.0 0.00 0.00 0.00 44 1017.1
20260506163914 65 242 3.0 3.0 0.00 0.00 0.00 45 1017.1
20260506163414 67 241 1.0 2.0 0.00 0.00 0.00 44 1017.0
20260506162908 66 178 3.0 5.0 0.00 0.00 0.00 44 1017.1
20260506162407 66 231 0.0 1.0 0.00 0.00 0.00 45 1017.1
20260506161858 65 226 0.0 1.0 0.00 0.00 0.00 45 1017.1
20260506161355 64 208 2.0 2.0 0.00 0.00 0.00 45 1017.0
20260506160854 66 39 2.0 3.0 0.00 0.00 0.00 45 1017.1
20260506160350 65 265 0.0 1.0 0.00 0.00 0.00 45 1017.2
20260506155848 63 189 2.0 2.0 0.00 0.00 0.00 48 1017.0
20260506155345 63 116 2.0 2.0 0.00 0.00 0.00 47 1017.0
20260506153502 62 108 3.0 3.0 0.00 0.00 0.00 49 1017.1
20260506153000 61 152 3.0 3.0 0.00 0.00 0.00 52 1017.0
20260506152456 61 162 3.0 3.0 0.00 0.00 0.00 52 1017.0
20260506151954 60 112 2.0 3.0 0.00 0.00 0.00 53 1017.0
20260506151452 60 121 2.0 2.0 0.00 0.00 0.00 54 1017.1
20260506150949 60 226 0.0 2.0 0.00 0.00 0.00 54 1017.2
20260506150445 59 123 4.0 5.0 0.00 0.00 0.00 55 1017.1
20260506145942 59 138 3.0 5.0 0.00 0.00 0.00 56 1017.2
20260506145438 58 107 0.0 1.0 0.00 0.00 0.00 57 1017.0
20260506144936 58 118 4.0 5.0 0.00 0.00 0.00 58 1017.2
20260506144432 57 103 4.0 5.0 0.00 0.00 0.00 59 1016.8
20260506143931 57 114 4.0 5.0 0.00 0.00 0.00 61 1016.8
20260506143428 57 112 2.0 2.0 0.00 0.00 0.00 62 1016.8
20260506142926 57 79 0.0 1.0 0.00 0.00 0.00 62 1017.0
20260506142424 57 219 0.0 0.0 0.00 0.00 0.00 63 1016.8
20260506141921 56 207 0.0 0.0 0.00 0.00 0.00 62 1016.9
20260506141419 55 214 0.0 0.0 0.00 0.00 0.00 63 1016.6
20260506140917 55 230 0.0 0.0 0.00 0.00 0.00 63 1016.8
20260506140414 53 230 0.0 0.0 0.00 0.00 0.00 68 1016.8
20260506135911 52 228 0.0 0.0 0.00 0.00 0.00 68 1016.7
20260506135408 52 213 0.0 0.0 0.00 0.00 0.00 70 1016.8
20260506134904 51 213 0.0 0.0 0.00 0.00 0.00 71 1016.7
20260506134400 51 213 0.0 0.0 0.00 0.00 0.00 71 1016.3
20260506133857 51 213 0.0 0.0 0.00 0.00 0.00 70 1016.4
20260506133354 51 213 0.0 0.0 0.00 0.00 0.00 71 1016.4
20260506132850 51 213 1.0 1.0 0.00 0.00 0.00 72 1016.2
20260506132348 50 210 0.0 0.0 0.00 0.00 0.00 72 1016.2
20260506131846 50 202 0.0 0.0 0.00 0.00 0.00 72 1016.2
20260506131342 50 220 0.0 0.0 0.00 0.00 0.00 72 1016.0
20260506130839 50 211 0.0 0.0 0.00 0.00 0.00 71 1016.2
20260506130335 49 221 1.0 2.0 0.00 0.00 0.00 73 1016.0
20260506125833 50 196 2.0 2.0 0.00 0.00 0.00 73 1015.9
20260506125332 50 191 2.0 3.0 0.00 0.00 0.00 73 1016.0
20260506124830 50 211 2.0 2.0 0.00 0.00 0.00 74 1016.3
20260506124326 50 198 2.0 2.0 0.00 0.00 0.00 73 1016.2
20260506123824 50 216 2.0 2.0 0.00 0.00 0.00 72 1016.3
20260506123322 49 222 0.0 0.0 0.00 0.00 0.00 74 1016.2
20260506122819 50 223 0.0 0.0 0.00 0.00 0.00 74 1016.1
20260506122316 49 225 0.0 0.0 0.00 0.00 0.00 75 1016.2
20260506121814 49 226 0.0 0.0 0.00 0.00 0.00 75 1016.0
20260506121311 49 225 0.0 0.0 0.00 0.00 0.00 74 1015.9
20260506120808 50 226 0.0 0.0 0.00 0.00 0.00 73 1015.8
20260506120306 50 196 0.0 0.0 0.00 0.00 0.00 72 1015.9
20260506115803 50 215 0.0 0.0 0.00 0.00 0.00 72 1016.0
20260506115306 51 217 0.0 0.0 0.00 0.00 0.00 71 1015.9
20260506114759 51 226 0.0 0.0 0.00 0.00 0.00 70 1015.9
20260506114256 50 220 0.0 0.0 0.00 0.00 0.00 71 1015.7
20260506113755 50 272 0.0 0.0 0.00 0.00 0.00 71 1015.7
20260506113252 51 169 2.0 2.0 0.00 0.00 0.00 70 1015.7
20260506112748 52 225 0.0 0.0 0.00 0.00 0.00 68 1015.7
20260506112246 52 232 0.0 0.0 0.00 0.00 0.00 67 1015.7
20260506111743 53 244 0.0 0.0 0.00 0.00 0.00 66 1015.8
20260506111241 52 257 3.0 3.0 0.00 0.00 0.00 67 1015.7
20260506110737 52 229 2.0 2.0 0.00 0.00 0.00 67 1015.6
20260506110235 53 262 2.0 2.0 0.00 0.00 0.00 67 1015.5
20260506105732 53 277 3.0 3.0 0.00 0.00 0.00 66 1015.8
20260506105229 53 255 3.0 3.0 0.00 0.00 0.00 66 1015.6
20260506104727 53 325 2.0 3.0 0.00 0.00 0.00 66 1015.6
20260506104224 53 252 0.0 1.0 0.00 0.00 0.00 66 1015.6
20260506103721 53 247 0.0 1.0 0.00 0.00 0.00 67 1015.6
20260506103218 53 251 1.0 1.0 0.00 0.00 0.00 66 1015.4
20260506102716 53 248 5.0 6.0 0.00 0.00 0.00 65 1015.5
20260506102214 53 217 5.0 5.0 0.00 0.00 0.00 66 1015.6
20260506101710 53 257 5.0 6.0 0.00 0.00 0.00 65 1015.5
20260506101207 53 233 10.0 11.0 0.00 0.00 0.00 66 1015.6
20260506100705 53 260 5.0 6.0 0.00 0.00 0.00 66 1015.4
20260506100203 53 273 8.0 9.0 0.00 0.00 0.00 66 1015.6
20260506095701 53 256 10.0 11.0 0.00 0.00 0.00 66 1015.4
20260506095157 53 218 13.0 15.0 0.00 0.00 0.00 67 1015.5
20260506094655 53 222 9.0 10.0 0.00 0.00 0.00 67 1015.4
20260506094152 53 232 11.0 13.0 0.00 0.00 0.00 67 1015.4
20260506093651 53 213 9.0 10.0 0.00 0.00 0.00 67 1015.5
20260506093148 53 227 11.0 14.0 0.00 0.00 0.00 66 1015.4
20260506092646 53 245 10.0 13.0 0.00 0.00 0.00 67 1015.5
20260506092143 53 211 8.0 9.0 0.00 0.00 0.00 68 1015.4
20260506091640 53 257 7.0 8.0 0.00 0.00 0.00 68 1015.3
20260506091138 53 240 9.0 9.0 0.00 0.00 0.00 68 1015.4
20260506090636 53 285 9.0 13.0 0.00 0.00 0.00 68 1015.3
20260506090132 53 218 12.0 14.0 0.00 0.00 0.00 67 1015.3
20260506085629 53 244 9.0 15.0 0.00 0.00 0.00 68 1015.4
20260506085125 53 222 11.0 13.0 0.00 0.00 0.00 67 1015.7
20260506084622 53 237 9.0 10.0 0.00 0.00 0.00 67 1015.4
20260506084118 53 262 7.0 8.0 0.00 0.00 0.00 68 1015.7
20260506083615 53 245 9.0 11.0 0.00 0.00 0.00 68 1015.7
20260506083113 53 256 7.0 8.0 0.00 0.00 0.00 67 1015.5
20260506082609 53 252 13.0 15.0 0.00 0.00 0.00 68 1015.6
20260506082105 53 281 10.0 11.0 0.00 0.00 0.00 68 1015.4
20260506081604 53 237 13.0 16.0 0.00 0.00 0.00 68 1015.7
20260506081101 53 242 14.0 18.0 0.00 0.00 0.00 67 1015.5
20260506080558 53 274 15.0 18.0 0.00 0.00 0.00 67 1015.5
20260506073038 53 281 10.0 13.0 0.00 0.00 0.00 67 1015.7
20260506072536 53 187 15.0 17.0 0.00 0.00 0.00 67 1015.6
20260506072034 53 242 11.0 16.0 0.00 0.00 0.00 67 1015.5
20260506071531 53 231 14.0 17.0 0.00 0.00 0.00 67 1015.5
20260506071028 53 280 7.0 9.0 0.00 0.00 0.00 67 1015.3
20260506070525 53 249 7.0 9.0 0.00 0.00 0.00 67 1015.6
20260506062503 54 231 12.0 14.0 0.00 0.00 0.00 65 1015.0
20260506061959 54 224 10.0 11.0 0.00 0.00 0.00 65 1014.7
20260506061455 54 247 11.0 14.0 0.00 0.00 0.00 64 1014.8
20260506060953 54 228 12.0 15.0 0.00 0.00 0.00 65 1014.7